SR5NLK-1 Weather Reports


time (UTC)temp
C
wind
direction
speed
KPH
gust
KPH
rain 1hr
cm
rain 24hr
cm
rain mn
cm
humidity
%
barometer
mb
20260831091949 30 247 0.0 16.1 0.00 0.00 0.00 41 1054.8
20260831091450 31 90 12.9 17.7 0.00 0.00 0.00 41 1047.6
20260831090949 31 0 0.0 9.7 0.00 0.00 0.00 40 1069.0
20260831090449 31 135 3.2 11.3 0.00 0.00 0.00 40 1073.0
20260831085949 31 135 6.4 11.3 0.00 0.00 0.00 40 1071.4
20260831085449 32 112 4.8 12.9 0.00 0.00 0.00 40 1058.2
20260831085149 32 112 12.9 12.9 0.00 0.00 0.00 40 1059.5
20260831084949 32 157 9.7 9.7 0.00 0.00 0.00 40 1026.6
20260831084450 32 157 8.0 16.1 0.00 0.00 0.00 40 1056.4
20260831083950 32 225 4.8 14.5 0.00 0.00 0.00 40 1065.5
20260831083449 32 157 0.0 6.4 0.00 0.00 0.00 40 1079.1
20260831082950 32 67 4.8 12.9 0.00 0.00 0.00 40 1030.3
20260831082450 32 157 3.2 8.0 0.00 0.00 0.00 39 1060.3
20260831081950 32 112 6.4 12.9 0.00 0.00 0.00 39 1061.4
20260831081849 32 90 9.7 12.9 0.00 0.00 0.00 39 1042.2
20260831081450 32 112 12.9 12.9 0.00 0.00 0.00 39 1076.2
20260831080450 33 135 0.0 11.3 0.00 0.00 0.00 38 1055.7
20260831075950 34 112 6.4 9.7 0.00 0.00 0.00 38 1035.0
20260831075450 34 112 6.4 6.4 0.00 0.00 0.00 39 1054.7
20260831074950 33 135 0.0 4.8 0.00 0.00 0.00 40 1034.8
20260831074612 33 112 4.8 8.0 0.00 0.00 0.00 39 1050.1
20260831074549 33 67 1.6 8.0 0.00 0.00 0.00 39 1050.6
20260831074450 33 112 4.8 8.0 0.00 0.00 0.00 39 1050.1
20260831073950 34 90 0.0 8.0 0.00 0.00 0.00 38 1016.6
20260831073450 35 135 1.6 8.0 0.00 0.00 0.00 37 1053.2
20260831073356 35 22 1.6 3.2 0.00 0.00 0.00 39 1071.7
20260831073032 35 112 4.8 6.4 0.00 0.00 0.00 38 1064.4
20260831072950 35 112 4.8 6.4 0.00 0.00 0.00 38 1064.4
20260831072450 35 22 1.6 3.2 0.00 0.00 0.00 39 1071.7
20260831071950 35 135 0.0 3.2 0.00 0.00 0.00 40 1053.2
20260831071450 33 315 0.0 3.2 0.00 0.00 0.00 40 1022.3
20260831071249 33 315 0.0 3.2 0.00 0.00 0.00 41 1059.5
20260831071055 33 112 0.0 3.2 0.00 0.00 0.00 41 1042.5
20260831070950 33 112 0.0 3.2 0.00 0.00 0.00 41 1042.5
20260831070635 33 337 0.0 3.2 0.00 0.00 0.00 41 1081.2
20260831070550 33 337 0.0 3.2 0.00 0.00 0.00 41 1081.2
20260831070450 33 337 0.0 3.2 0.00 0.00 0.00 41 1081.2
20260831070429 33 22 0.0 1.6 0.00 0.00 0.00 42 1068.9
20260831070408 32 337 0.0 4.8 0.00 0.00 0.00 42 1055.6
20260831070039 33 22 0.0 1.6 0.00 0.00 0.00 42 1068.9
20260831065950 33 22 0.0 1.6 0.00 0.00 0.00 42 1068.9
20260831065943 33 292 0.0 0.0 0.00 0.00 0.00 43 1014.9
20260831065837 32 135 0.0 1.6 0.00 0.00 0.00 45 1086.3
20260831065808 31 202 1.6 3.2 0.00 0.00 0.00 48 1045.6
20260831065726 28 157 0.0 0.0 0.00 0.00 0.00 51 1054.5
20260831065450 32 337 0.0 4.8 0.00 0.00 0.00 42 1055.6
20260831064950 33 292 0.0 0.0 0.00 0.00 0.00 43 1014.9
20260831064629 28 225 0.0 3.2 0.00 0.00 0.00 51 1080.6
20260831064450 32 135 0.0 1.6 0.00 0.00 0.00 45 1086.3
20260831064343 28 225 0.0 3.2 0.00 0.00 0.00 51 1080.6
20260831063949 31 202 1.6 3.2 0.00 0.00 0.00 48 1045.6
20260831063450 29 157 1.6 3.2 0.00 0.00 0.00 50 1076.8
20260831062950 28 157 0.0 0.0 0.00 0.00 0.00 51 1054.5
20260831062919 28 157 1.6 3.2 0.00 0.00 0.00 52 1070.5
20260831062450 28 225 0.0 3.2 0.00 0.00 0.00 51 1080.6
20260831061950 28 112 3.2 4.8 0.00 0.00 0.00 51 994.8
20260831061450 28 157 1.6 3.2 0.00 0.00 0.00 52 1070.5
20260831061035 28 112 1.6 4.8 0.00 0.00 0.00 54 1069.0
20260831060950 28 112 1.6 4.8 0.00 0.00 0.00 54 1069.0
20260831060829 27 202 0.0 3.2 0.00 0.00 0.00 58 1065.9
20260831060649 27 157 1.6 4.8 0.00 0.00 0.00 56 1050.6
20260831060450 27 202 0.0 3.2 0.00 0.00 0.00 58 1065.9
20260831055950 26 45 0.0 0.0 0.00 0.00 0.00 63 1078.4
20260831055450 24 67 0.0 3.2 0.00 0.00 0.00 69 1061.1
20260831054950 22 112 3.2 3.2 0.00 0.00 0.00 75 1062.6
20260831054450 20 112 0.0 4.8 0.00 0.00 0.00 75 1061.3
20260831053950 19 135 3.2 4.8 0.00 0.00 0.00 75 1064.2
20260831053450 19 157 3.2 6.4 0.00 0.00 0.00 75 1059.5
20260831053349 19 135 4.8 6.4 0.00 0.00 0.00 76 1048.5
20260831053023 19 157 3.2 6.4 0.00 0.00 0.00 77 1069.0
20260831052950 19 157 3.2 6.4 0.00 0.00 0.00 77 1069.0
20260831052503 19 157 3.2 4.8 0.00 0.00 0.00 78 1020.9
20260831051950 18 112 1.6 3.2 0.00 0.00 0.00 80 1078.8
20260831051450 18 157 0.0 0.0 0.00 0.00 0.00 81 991.1
20260831050950 17 112 0.0 0.0 0.00 0.00 0.00 80 1050.1
20260831050450 17 135 0.0 1.6 0.00 0.00 0.00 80 1065.9
20260831050049 17 112 0.0 1.6 0.00 0.00 0.00 80 1009.9
20260831045950 17 157 1.6 1.6 0.00 0.00 0.00 80 1002.7
20260831045450 17 135 0.0 1.6 0.00 0.00 0.00 80 1076.5
20260831044950 17 135 0.0 33.8 0.00 0.00 0.00 80 1015.6
20260831044450 17 67 0.0 0.0 0.00 0.00 0.00 80 1056.4
20260831043950 16 157 0.0 0.0 0.00 0.00 0.00 80 1019.3
20260831043450 16 157 0.0 0.0 0.00 0.00 0.00 80 1025.6
20260831042950 16 22 0.0 0.0 0.00 0.00 0.00 80 1056.4
20260831042749 16 22 0.0 0.0 0.00 0.00 0.00 80 1069.0
20260831042450 16 45 0.0 0.0 0.00 0.00 0.00 80 1065.8
20260831042027 16 157 0.0 0.0 0.00 0.00 0.00 80 1078.4
20260831041950 16 157 0.0 0.0 0.00 0.00 0.00 80 1078.4
20260831041528 16 157 0.0 0.0 0.00 0.00 0.00 80 1043.8
20260831041450 16 157 0.0 0.0 0.00 0.00 0.00 80 1043.8
20260831040950 16 112 0.0 0.0 0.00 0.00 0.00 80 1072.1
20260831040450 16 112 0.0 0.0 0.00 0.00 0.00 80 1064.3
20260831035951 16 157 0.0 0.0 0.00 0.00 0.00 80 1069.0
20260831035449 16 135 0.0 0.0 0.00 0.00 0.00 80 1079.3
20260831034950 16 157 0.0 3.2 0.00 0.00 0.00 80 1070.6
20260831034450 16 135 0.0 1.6 0.00 0.00 0.00 80 1073.7
20260831033950 16 135 0.0 0.0 0.00 0.00 0.00 79 1040.6
20260831033450 16 135 0.0 3.2 0.00 0.00 0.00 79 1073.7
20260831032950 16 112 0.0 0.0 0.00 0.00 0.00 79 1068.9
20260831032522 16 112 0.0 0.0 0.00 0.00 0.00 79 1069.0
20260831032450 16 112 0.0 0.0 0.00 0.00 0.00 79 1069.0
20260831032149 16 112 0.0 0.0 0.00 0.00 0.00 79 1064.2
20260831031950 16 157 0.0 0.0 0.00 0.00 0.00 79 1064.2
20260831031529 16 157 0.0 1.6 0.00 0.00 0.00 79 1067.8
20260831031450 16 157 0.0 1.6 0.00 0.00 0.00 79 1067.8
20260831030950 16 112 0.0 1.6 0.00 0.00 0.00 79 1078.4
20260831030450 16 135 0.0 1.6 0.00 0.00 0.00 79 1080.0
20260831030026 16 112 0.0 3.2 0.00 0.00 0.00 79 1065.8
20260831025950 16 112 0.0 3.2 0.00 0.00 0.00 79 1065.8
20260831025450 16 135 1.6 3.2 0.00 0.00 0.00 79 1083.1
20260831025026 16 135 3.2 3.2 0.00 0.00 0.00 78 1048.7
20260831024950 16 135 3.2 3.2 0.00 0.00 0.00 78 1048.7
20260831024849 16 135 3.2 3.2 0.00 0.00 0.00 78 1027.1
20260831024450 16 112 1.6 3.2 0.00 0.00 0.00 78 1053.2
20260831023951 16 135 3.2 4.8 0.00 0.00 0.00 78 1068.9
20260831023450 16 112 0.0 3.2 0.00 0.00 0.00 77 1033.5
20260831022950 16 112 0.0 0.0 0.00 0.00 0.00 77 1028.8
20260831022450 16 67 0.0 0.0 0.00 0.00 0.00 77 1081.5
20260831021950 16 112 0.0 0.0 0.00 0.00 0.00 77 1069.0
20260831021549 16 112 0.0 0.0 0.00 0.00 0.00 76 1053.2
20260831021450 16 112 0.0 0.0 0.00 0.00 0.00 76 1089.3
20260831020950 16 112 0.0 0.0 0.00 0.00 0.00 76 1072.1
20260831020450 16 112 0.0 0.0 0.00 0.00 0.00 76 1084.7
20260831015950 16 45 0.0 1.6 0.00 0.00 0.00 75 998.0
20260831015450 16 90 1.6 3.2 0.00 0.00 0.00 75 1078.4
20260831014950 16 90 1.6 1.6 0.00 0.00 0.00 75 1081.5
20260831014450 17 157 0.0 3.2 0.00 0.00 0.00 75 1027.2
20260831014249 17 135 0.0 3.2 0.00 0.00 0.00 75 1058.1
20260831013950 17 180 1.6 3.2 0.00 0.00 0.00 75 1078.4
20260831013450 17 225 0.0 1.6 0.00 0.00 0.00 75 1065.8
20260831013021 17 225 0.0 0.0 0.00 0.00 0.00 74 1083.1
20260831012950 17 225 0.0 0.0 0.00 0.00 0.00 74 1083.1
20260831012450 17 67 0.0 0.0 0.00 0.00 0.00 74 1062.7
20260831011950 17 45 0.0 0.0 0.00 0.00 0.00 74 1078.4
20260831011450 17 45 0.0 0.0 0.00 0.00 0.00 74 1065.8
20260831010949 17 202 0.0 3.2 0.00 0.00 0.00 73 1046.9
20260831010450 17 157 0.0 1.6 0.00 0.00 0.00 73 1084.5
20260831005950 17 157 0.0 0.0 0.00 0.00 0.00 73 1069.0
20260831005450 17 180 0.0 3.2 0.00 0.00 0.00 72 1084.6
20260831004950 17 225 0.0 3.2 0.00 0.00 0.00 72 1028.8
20260831004451 17 202 0.0 1.6 0.00 0.00 0.00 71 1059.5
20260831003950 17 180 0.0 1.6 0.00 0.00 0.00 71 1038.2
20260831003650 17 180 0.0 1.6 0.00 0.00 0.00 71 1067.4
20260831003451 17 157 0.0 3.2 0.00 0.00 0.00 71 1056.4
20260831002950 17 180 3.2 3.2 0.00 0.00 0.00 70 1076.8
20260831002450 17 202 0.0 3.2 0.00 0.00 0.00 70 1062.7
20260831001950 17 135 1.6 3.2 0.00 0.00 0.00 70 1072.1
20260831001450 17 157 0.0 0.0 0.00 0.00 0.00 69 1047.6
20260831000950 18 135 0.0 3.2 0.00 0.00 0.00 69 1080.4
20260831000450 18 180 0.0 3.2 0.00 0.00 0.00 69 1036.6
20260831000349 18 202 0.0 3.2 0.00 0.00 0.00 68 991.0
20260830235950 18 180 1.6 6.4 0.00 0.00 0.00 68 1075.2
20260830235450 18 157 0.0 6.4 0.00 0.00 0.00 68 1065.8
20260830234950 18 180 4.8 8.0 0.00 0.00 0.00 68 1067.4
20260830234450 18 180 3.2 8.0 0.00 0.00 0.00 68 1062.7
20260830233950 18 180 3.2 9.7 0.00 0.00 0.00 68 1062.7
20260830233450 18 180 6.4 11.3 0.00 0.00 0.00 67 1072.1
20260830233049 18 157 1.6 12.9 0.00 0.00 0.00 67 1076.8
20260830232950 18 225 6.4 12.9 0.00 0.00 0.00 67 1084.6
20260830232450 18 180 9.7 9.7 0.00 0.00 0.00 67 1069.0
20260830231950 18 202 9.7 11.3 0.00 0.00 0.00 67 1067.4
20260830231450 18 157 3.2 9.7 0.00 0.00 0.00 66 1062.7
20260830230950 18 202 3.2 9.7 0.00 0.00 0.00 66 1075.3
20260830230450 18 202 4.8 9.7 0.00 0.00 0.00 66 1073.6
20260830225950 18 202 8.0 9.7 0.00 0.00 0.00 65 1072.1
20260830225750 18 202 1.6 9.7 0.00 0.00 0.00 65 1069.0
20260830225450 18 180 3.2 8.0 0.00 0.00 0.00 65 1065.8
20260830224951 18 180 3.2 8.0 0.00 0.00 0.00 65 1062.7
20260830224451 19 225 4.8 8.0 0.00 0.00 0.00 64 1072.1
20260830223951 19 202 3.2 11.3 0.00 0.00 0.00 64 1071.4
20260830223451 19 180 3.2 6.4 0.00 0.00 0.00 64 1043.8
20260830222951 19 180 3.2 9.7 0.00 0.00 0.00 63 1047.9
20260830222450 19 180 6.4 9.7 0.00 0.00 0.00 63 1051.8
20260830221951 20 135 4.8 8.0 0.00 0.00 0.00 63 1068.9
20260830221451 20 157 8.0 9.7 0.00 0.00 0.00 63 1073.7
20260830220951 20 180 6.4 6.4 0.00 0.00 0.00 63 1067.4
20260830220451 20 202 1.6 9.7 0.00 0.00 0.00 62 1056.4
20260830215951 20 202 4.8 6.4 0.00 0.00 0.00 62 1076.8
20260830215451 20 180 3.2 9.7 0.00 0.00 0.00 62 1036.6
20260830215150 20 202 3.2 9.7 0.00 0.00 0.00 62 1059.5
20260830214951 20 180 4.8 8.0 0.00 0.00 0.00 62 1078.4
20260830214451 20 180 6.4 8.0 0.00 0.00 0.00 62 1064.8
20260830213951 20 202 6.4 9.7 0.00 0.00 0.00 61 1070.6
20260830213451 20 180 0.0 9.7 0.00 0.00 0.00 61 1028.7
20260830212951 20 157 9.7 9.7 0.00 0.00 0.00 61 1072.1
20260830212451 20 180 3.2 8.0 0.00 0.00 0.00 60 986.1
20260830211951 20 157 3.2 9.7 0.00 0.00 0.00 60 1081.5
20260830211850 20 202 4.8 9.7 0.00 0.00 0.00 60 1072.1
20260830211451 20 157 4.8 9.7 0.00 0.00 0.00 60 1081.5
20260830210951 20 157 6.4 8.0 0.00 0.00 0.00 60 1064.2
20260830210451 20 180 4.8 6.4 0.00 0.00 0.00 60 1069.0
20260830205951 20 157 3.2 6.4 0.00 0.00 0.00 60 1056.3
20260830205451 20 157 1.6 4.8 0.00 0.00 0.00 60 1072.1
20260830204951 20 135 4.8 4.8 0.00 0.00 0.00 60 1056.4
20260830204550 20 135 1.6 4.8 0.00 0.00 0.00 60 1020.8
20260830204451 20 135 0.0 4.8 0.00 0.00 0.00 60 986.9
20260830203951 20 157 3.2 3.2 0.00 0.00 0.00 60 1065.8
20260830203451 20 157 1.6 3.2 0.00 0.00 0.00 60 1079.9
20260830202951 21 135 1.6 4.8 0.00 0.00 0.00 59 1022.5
20260830202451 21 135 0.0 4.8 0.00 0.00 0.00 60 996.4
20260830201951 21 112 0.0 4.8 0.00 0.00 0.00 59 1065.8
20260830201451 21 135 4.8 4.8 0.00 0.00 0.00 60 1050.1
20260830201250 21 135 1.6 4.8 0.00 0.00 0.00 60 1069.0
20260830200951 21 135 4.8 6.4 0.00 0.00 0.00 60 1046.9
20260830200451 21 157 3.2 4.8 0.00 0.00 0.00 60 1059.5
20260830195951 21 112 3.2 4.8 0.00 0.00 0.00 60 1075.2
20260830195451 20 135 0.0 6.4 0.00 0.00 0.00 60 1068.9
20260830195027 20 135 3.2 4.8 0.00 0.00 0.00 59 1065.8
20260830194951 20 135 3.2 4.8 0.00 0.00 0.00 59 1065.8
20260830194451 20 135 3.2 3.2 0.00 0.00 0.00 59 1053.3
20260830193950 20 90 3.2 4.8 0.00 0.00 0.00 59 1038.2
20260830193451 21 135 3.2 3.2 0.00 0.00 0.00 58 1062.7
20260830192951 21 135 3.2 3.2 0.00 0.00 0.00 58 1059.5
20260830192451 21 112 3.2 3.2 0.00 0.00 0.00 58 1031.9
20260830191951 21 112 1.6 3.2 0.00 0.00 0.00 58 1069.0
20260830191451 21 112 0.0 3.2 0.00 0.00 0.00 58 1030.4
20260830190951 21 135 0.0 3.2 0.00 0.00 0.00 58 1084.6
20260830190650 21 112 3.2 3.2 0.00 0.00 0.00 57 1081.5
20260830190451 21 90 3.2 3.2 0.00 0.00 0.00 57 1062.7
20260830185951 21 135 1.6 1.6 0.00 0.00 0.00 56 1067.5
20260830185451 21 90 1.6 3.2 0.00 0.00 0.00 56 1059.5
20260830184951 21 135 3.2 3.2 0.00 0.00 0.00 55 1050.1
20260830184451 21 112 3.2 3.2 0.00 0.00 0.00 55 1062.6
20260830183951 21 90 0.0 3.2 0.00 0.00 0.00 54 1028.8
20260830183451 22 135 1.6 3.2 0.00 0.00 0.00 53 1083.1
20260830183350 22 112 0.0 3.2 0.00 0.00 0.00 53 1081.5
20260830182951 22 112 0.0 1.6 0.00 0.00 0.00 53 1041.3
20260830182451 22 90 0.0 1.6 0.00 0.00 0.00 52 1064.3
20260830181951 22 112 0.0 1.6 0.00 0.00 0.00 51 1075.2
20260830181451 22 135 0.0 3.2 0.00 0.00 0.00 50 1051.4
20260830180951 23 90 0.0 3.2 0.00 0.00 0.00 49 1035.0
20260830180451 23 135 0.0 1.6 0.00 0.00 0.00 48 1054.6
20260830180050 23 112 1.6 3.2 0.00 0.00 0.00 48 1084.7
20260830175951 23 157 1.6 3.2 0.00 0.00 0.00 48 1075.2
20260830175451 23 112 3.2 4.8 0.00 0.00 0.00 47 1069.0
20260830174951 23 67 0.0 3.2 0.00 0.00 0.00 47 1068.9
20260830174451 24 112 0.0 3.2 0.00 0.00 0.00 46 1010.5
20260830173951 24 157 0.0 3.2 0.00 0.00 0.00 46 1083.1
20260830173451 24 112 3.2 4.8 0.00 0.00 0.00 45 1071.0
20260830172951 25 135 3.2 8.0 0.00 0.00 0.00 45 1067.4
20260830172750 25 112 3.2 8.0 0.00 0.00 0.00 45 1076.8
20260830172451 25 135 3.2 6.4 0.00 0.00 0.00 45 1065.7
20260830171951 25 180 0.0 6.4 0.00 0.00 0.00 44 1073.8
20260830171451 25 157 1.6 6.4 0.00 0.00 0.00 44 1052.4
20260830170951 25 112 0.0 4.8 0.00 0.00 0.00 44 1062.7
20260830170451 26 135 3.2 6.4 0.00 0.00 0.00 43 1045.0
20260830165951 26 112 3.2 6.4 0.00 0.00 0.00 43 1043.7
20260830165450 26 157 4.8 6.4 0.00 0.00 0.00 43 1059.5
20260830164951 26 135 4.8 4.8 0.00 0.00 0.00 42 1086.4
20260830164451 26 157 3.2 4.8 0.00 0.00 0.00 42 1062.7
20260830163951 26 157 3.2 6.4 0.00 0.00 0.00 41 1075.2
20260830163451 26 135 4.8 6.4 0.00 0.00 0.00 41 1069.0
20260830162951 27 157 4.8 6.4 0.00 0.00 0.00 40 1072.1
20260830162451 27 157 4.8 8.0 0.00 0.00 0.00 40 1075.2
20260830162150 27 157 3.2 8.0 0.00 0.00 0.00 39 1069.0
20260830161951 27 180 3.2 9.7 0.00 0.00 0.00 39 1068.9
20260830161451 27 157 3.2 8.0 0.00 0.00 0.00 39 1072.1
20260830160951 28 180 3.2 9.7 0.00 0.00 0.00 38 1062.7
20260830160451 28 157 4.8 9.7 0.00 0.00 0.00 38 1073.8
20260830155951 28 135 1.6 8.0 0.00 0.00 0.00 38 1065.8
20260830155451 28 157 6.4 8.0 0.00 0.00 0.00 37 1062.7
20260830154951 28 180 3.2 9.7 0.00 0.00 0.00 37 1062.7
20260830154850 28 202 8.0 9.7 0.00 0.00 0.00 37 1069.0
20260830154451 28 112 8.0 8.0 0.00 0.00 0.00 37 1062.7
20260830153951 28 180 4.8 9.7 0.00 0.00 0.00 37 1065.8
20260830153451 28 225 4.8 11.3 0.00 0.00 0.00 36 1065.8
20260830152951 30 157 4.8 19.3 0.00 0.00 0.00 35 1062.7
20260830152451 30 157 3.2 12.9 0.00 0.00 0.00 34 1061.1
20260830151951 31 112 4.8 16.1 0.00 0.00 0.00 34 1059.5
20260830151550 31 202 9.7 20.9 0.00 0.00 0.00 34 1087.8
20260830151451 31 180 9.7 20.9 0.00 0.00 0.00 34 1075.2
20260830150951 31 135 6.4 19.3 0.00 0.00 0.00 34 1062.6
20260830150451 31 180 19.3 19.3 0.00 0.00 0.00 35 1089.4
20260830145951 30 202 3.2 19.3 0.00 0.00 0.00 34 1069.0
20260830145451 30 247 6.4 17.7 0.00 0.00 0.00 34 1059.5
20260830144951 30 202 8.0 25.7 0.00 0.00 0.00 34 1065.8
20260830144451 31 180 12.9 22.5 0.00 0.00 0.00 34 1069.0
20260830144250 31 180 19.3 22.5 0.00 0.00 0.00 34 1065.8
20260830143951 31 135 14.5 17.7 0.00 0.00 0.00 34 1044.5
20260830143451 31 135 6.4 17.7 0.00 0.00 0.00 34 1062.7
20260830142952 31 157 8.0 17.7 0.00 0.00 0.00 34 1075.2
20260830142451 31 202 12.9 17.7 0.00 0.00 0.00 35 1059.5
20260830141951 30 225 14.5 14.5 0.00 0.00 0.00 36 1069.0
20260830141451 30 135 3.2 17.7 0.00 0.00 0.00 36 1056.4
20260830140950 30 157 12.9 17.7 0.00 0.00 0.00 36 1086.2
20260830140451 30 202 6.4 19.3 0.00 0.00 0.00 36 1073.8
20260830135952 30 157 17.7 20.9 0.00 0.00 0.00 35 1072.0
20260830135451 30 180 6.4 24.1 0.00 0.00 0.00 36 1068.9
20260830134952 30 202 12.9 22.5 0.00 0.00 0.00 36 1056.4
20260830134452 30 180 4.8 16.1 0.00 0.00 0.00 36 1062.7
20260830133952 30 225 1.6 20.9 0.00 0.00 0.00 36 1073.7
20260830133651 30 180 17.7 17.7 0.00 0.00 0.00 36 1072.9
20260830133452 30 202 8.0 16.1 0.00 0.00 0.00 36 991.7
20260830132952 30 270 1.6 22.5 0.00 0.00 0.00 36 1065.8
20260830132452 30 180 4.8 17.7 0.00 0.00 0.00 37 1080.0
20260830131952 30 247 17.7 20.9 0.00 0.00 0.00 37 1017.3
20260830131452 30 135 8.0 22.5 0.00 0.00 0.00 36 1065.8
20260830130952 30 202 3.2 17.7 0.00 0.00 0.00 37 1059.5
20260830130452 30 157 4.8 16.1 0.00 0.00 0.00 37 1025.5
20260830130351 30 180 12.9 16.1 0.00 0.00 0.00 37 1053.2
20260830125952 30 135 9.7 12.9 0.00 0.00 0.00 37 1069.0
20260830125452 29 180 8.0 11.3 0.00 0.00 0.00 38 1036.5
20260830124952 29 157 6.4 19.3 0.00 0.00 0.00 38 1062.6
20260830124452 29 157 19.3 22.5 0.00 0.00 0.00 38 1082.4
20260830123952 29 180 4.8 17.7 0.00 0.00 0.00 38 1021.4
20260830123452 29 247 9.7 24.1 0.00 0.00 0.00 38 1081.5
20260830123051 28 202 17.7 22.5 0.00 0.00 0.00 38 1062.8
20260830122952 28 157 4.8 24.1 0.00 0.00 0.00 38 1081.6
20260830122452 29 202 9.7 19.3 0.00 0.00 0.00 39 1026.3
20260830121952 29 135 6.4 27.4 0.00 0.00 0.00 39 1059.5
20260830121452 29 180 12.9 16.1 0.00 0.00 0.00 39 1058.6
20260830121023 29 180 16.1 19.3 0.00 0.00 0.00 39 1034.7
20260830120952 29 180 16.1 19.3 0.00 0.00 0.00 39 1034.7
20260830120452 29 180 9.7 19.3 0.00 0.00 0.00 39 1086.9
20260830115952 28 180 4.8 14.5 0.00 0.00 0.00 39 1011.8
20260830115751 28 180 12.9 14.5 0.00 0.00 0.00 39 1065.8
20260830115452 28 157 3.2 17.7 0.00 0.00 0.00 39 1069.7
20260830114952 28 202 17.7 22.5 0.00 0.00 0.00 39 1049.3
20260830114452 28 247 14.5 20.9 0.00 0.00 0.00 39 991.7
20260830113952 28 225 9.7 19.3 0.00 0.00 0.00 39 1012.0
20260830112952 28 225 9.7 19.3 0.00 0.00 0.00 39 997.8
20260830112451 28 157 19.3 24.1 0.00 0.00 0.00 38 1077.4
20260830112350 29 157 19.3 27.4 0.00 0.00 0.00 38 1069.0
20260830111952 29 157 19.3 27.4 0.00 0.00 0.00 38 1069.0
20260830111452 30 112 9.7 17.7 0.00 0.00 0.00 38 1043.8
20260830111107 30 157 11.3 17.7 0.00 0.00 0.00 38 1066.2
20260830110952 30 157 9.7 29.0 0.00 0.00 0.00 38 1042.3
20260830110452 30 270 4.8 22.5 0.00 0.00 0.00 38 1085.5
20260830105952 30 157 11.3 17.7 0.00 0.00 0.00 38 1066.2
20260830105151 30 225 9.7 17.7 0.00 0.00 0.00 38 994.6
20260830105129 30 202 9.7 17.7 0.00 0.00 0.00 38 1039.2
20260830104952 30 202 9.7 17.7 0.00 0.00 0.00 38 1039.2
20260830104452 30 135 6.4 16.1 0.00 0.00 0.00 39 1075.0
20260830103952 29 202 11.3 14.5 0.00 0.00 0.00 40 1074.4
20260830103452 28 135 4.8 17.7 0.00 0.00 0.00 40 1083.6
20260830102952 28 135 16.1 20.9 0.00 0.00 0.00 40 1055.9
20260830102452 28 180 20.9 20.9 0.00 0.00 0.00 40 1022.5
20260830101952 29 202 6.4 22.5 0.00 0.00 0.00 40 1041.4
20260830101851 29 292 6.4 24.1 0.00 0.00 0.00 40 1031.9
20260830101452 29 135 12.9 25.7 0.00 0.00 0.00 41 1035.9
20260830101024 29 135 8.0 14.5 0.00 0.00 0.00 41 996.4
20260830100952 29 135 8.0 14.5 0.00 0.00 0.00 41 996.4
20260830100712 28 90 9.7 16.1 0.00 0.20 0.00 42 1060.1
20260830100638 28 90 9.7 16.1 0.00 0.20 0.00 42 1060.1
20260830100452 29 157 6.4 17.7 0.00 0.00 0.00 41 1035.2
20260830095952 28 90 9.7 16.1 0.00 0.20 0.00 42 1060.1
20260830095553 28 112 12.9 19.3 0.00 0.20 0.00 42 1102.6
20260830095452 28 112 12.9 19.3 0.00 0.20 0.00 42 1102.6
20260830094952 28 157 19.3 19.3 0.00 0.20 0.00 42 1070.9
20260830094918 28 157 6.4 17.7 0.00 0.20 0.00 43 1040.6
20260830094551 28 157 12.9 17.7 0.00 0.20 0.00 43 1083.2
20260830094452 28 157 6.4 17.7 0.00 0.20 0.00 43 1040.6
20260830093952 28 225 11.3 16.1 0.00 0.20 0.00 43 1069.0
20260830093525 28 202 6.4 22.5 0.00 0.20 0.00 43 1069.0
20260830093452 28 202 6.4 22.5 0.00 0.20 0.00 43 1069.0
20260830093032 28 247 4.8 27.4 0.00 0.20 0.00 43 1086.1
20260830092952 28 247 4.8 27.4 0.00 0.20 0.00 43 1086.1
20260830092452 28 112 19.3 19.3 0.00 0.20 0.00 44 990.1